Weather in Benghazi

Libya     32˚05′39″N   20˚09′49″E
temp.,
°C
wind,
m/s
gust,
m/s
humid.,
%
clouds,
%
prec.,
mm/h
press.,
hPa
HPBL,
m
27 november, fri
fri2723:00+15˚e467022 0.0 1020146
02:00+14˚e467226 0.0 1020135
05:00+14˚ene46700 0.0 1019141
08:00+14˚ene47724 0.0 1020158
11:00+17˚ene45550 0.0 1021992
14:00+19˚nne33441 0.0 10191575
17:00+18˚ne555519 0.0 1019989
20:00+15˚ne696314 0.0 1020259
28 november, sat
sat2823:00+14˚ene58690 0.0 1021153
02:00+14˚e57700 0.0 1020113
05:00+13˚ese58730 0.0 1020134
08:00+13˚ese69770 0.0 1020169
11:00+17˚se79620 0.0 1021650
14:00+19˚sse67520 0.0 10181014
17:00+18˚sse58520 0.0 1017503
20:00+17˚se712570 0.0 1017274
29 november, sun
sun2923:00+16˚se915580 0.0 1017315
02:00+15˚se916580 0.0 1016342
05:00+14˚se10165782 0.0 1015353
08:00+14˚sse486178 0.0 1015249
11:00+16˚se12165077 0.1 1016581
14:00+19˚s894138 0.1 1013949
17:00+18˚ssw68510 0.0 1013398
20:00+16˚s34630 0.0 101479
30 november, mon
mon3023:00+16˚wsw34611 0.0 101448
02:00+16˚ssw45560 0.0 101447
05:00+16˚sw57560 0.0 101285
08:00+17˚wsw611660 0.1 1012215
11:00+18˚w8106953 1.4 10131068
14:00+20˚wnw10126036 2.1 10121503
17:00+18˚wnw912687 0.6 10121024
20:00+18˚nw913716 0.9 1014504
1 december, tue
tue123:00+17˚nnw814744 0.1 1015421
02:00+17˚nnw813786 0.1 1016383
05:00+16˚n59823 0.1 1017242
08:00+16˚n57802 0.1 1018183
11:00+19˚n79671 0.1 10191058
14:00+19˚n89641 0.1 10181106
17:00+17˚n78680 0.0 1018974
20:00+16˚n58740 0.0 1020289